User: anonymous   Login
Location: Malvern Link
(52.1333°N, 2.3000°W)
Time: 04:08:34
(UTC+00:00)
Language:

UKube-1 - Orbit

View from above orbital plane
View from above orbital plane
View from above satellite
View from above satellite

Ground track
Ground track

The orbit data is extracted from the following two-line orbital elements,

1 40074U 14037F   22178.92730870  .00001574  00000-0  18956-3 0  9995
2 40074  98.3813  60.1449 0003048 266.6710  93.4109 14.85437228431622
Epoch (UTC): 27 June 2022 22:15:19
Eccentricity: 0.0003048
inclination: 98.3813°
perigee height: 610 km
apogee height: 614 km
right ascension of ascending node: 60.1449°
argument of perigee: 266.6710°
revolutions per day: 14.85437228
mean anomaly at epoch: 93.4109°
orbit number at epoch: 43162

The dashed part of the orbit path shows where the satellite is in the earth's shadow,  

DLR